[[{"header":{"parameterUnit":"m.s-1","parameterCategory":1,"la1":30.2991,"la2":30.254,"lo1":-89.0895,"lo2":-89.0444,"dy":0.0017,"dx":0.0017,"nx":28,"ny":28,"refTime":"2025-12-31T03:00:00:Z","depth":0,"parameterNumber":2,"parameterNumberName":"U-component_of_WINDS"},"data":[0,0,0,0,0,0,0,0,0,0,0,0,0,0,0,0,0,0,0,0,0,0,0,0,0,0,0,0,0,0,0,0,0,0,0,0,0,0,0,0,0,0,0,0,0,0,0,0,0,0,0,0,0,0,0,0,0,0,2.4299,2.4301,0,2.4486,2.4489,2.4491,2.4513,2.4512,2.451,2.4508,2.4703,2.4709,2.4716,0,0,0,0,0,0,0,0,0,0,0,0,0,2.3963,2.3969,2.4299,2.4301,2.4303,2.4486,2.4489,2.4491,2.4514,2.4511,2.4509,2.4507,2.47,2.4709,2.4717,0,0,0,0,0,0,0,0,0,0,0,0,0,2.4125,2.3971,2.4298,2.4337,2.4342,2.4486,2.4489,2.4492,2.4514,2.4511,2.4509,2.4506,2.4698,2.4708,2.4718,2.4837,0,0,2.475,2.4754,0,0,0,0,0,0,0,0,2.4116,2.4138,2.4329,2.4334,2.434,2.4474,2.4442,2.4608,2.4515,2.4449,2.4508,2.4505,2.4629,2.4645,2.4686,2.4846,2.4855,2.4751,2.4757,2.4761,2.4764,0,0,0,0,0,0,0,2.4105,2.413,2.4373,2.4331,2.4339,2.4345,2.4365,2.4473,2.4552,2.4454,2.4456,2.4478,2.4632,2.4676,2.4691,2.4858,2.475,2.476,2.4766,2.477,2.5125,2.5129,0,0,0,0,0,0,2.4086,2.412,2.4367,2.4379,2.4219,2.4354,2.4376,2.4434,2.4551,2.4566,2.448,2.4479,2.466,2.4679,2.4698,2.4844,2.4761,2.4771,2.4777,2.5122,2.5126,2.513,0,0,0,0,0,0,2.4079,2.4108,2.436,2.425,2.4283,2.4362,2.4427,2.4439,2.4483,2.4571,2.4585,2.4511,2.4658,2.4683,2.4802,2.4851,2.4776,2.4785,2.5118,2.5123,2.5128,2.5139,0,0,0,0,0,0,2.4069,2.4105,2.415,2.4251,2.4288,2.446,2.443,2.4445,2.4501,2.45,2.4603,2.4618,2.4658,2.4787,2.4813,2.4864,2.4793,2.5114,2.5121,2.5126,2.5134,2.5143,2.5151,0,0,0,0,0,2.4057,2.4147,2.4153,2.4182,2.4347,2.4463,2.4484,2.4528,2.4505,2.4551,2.4608,2.4614,2.4842,2.4799,2.4828,2.4884,2.5111,2.5119,2.5126,2.513,2.5141,2.5151,0,0,0,0,0,0,2.405,2.416,2.4168,2.4293,2.4368,2.4466,2.4526,2.4538,2.4622,2.4618,2.467,2.4693,2.481,2.4859,2.4809,2.5005,2.4975,2.4988,2.4968,2.4979,2.4988,2.4972,2.4802,0,0,0,0,0,2.4063,2.4147,2.424,2.4341,2.4378,2.4446,2.4498,2.4525,2.4605,2.4638,2.4703,2.4781,2.4871,2.4928,2.5015,2.5142,2.5165,2.5195,2.5204,2.521,2.522,2.5291,2.5305,2.5154,2.5154,2.5153,0,0,2.4091,2.4162,2.4212,2.4341,2.4403,2.4489,2.4472,2.4565,2.4629,2.4652,2.4767,2.4818,2.491,2.5033,2.5091,2.5078,2.5268,2.5219,2.5224,2.5231,2.53,2.5314,2.5327,2.5159,2.5158,2.5157,0,0,2.4185,2.4247,2.4338,2.44,2.4493,2.4538,2.4559,2.4656,2.469,2.4807,2.4826,2.4905,2.5058,2.5122,2.5174,2.5294,2.5303,2.5321,2.5364,2.5432,2.5444,2.5455,2.5496,2.5511,2.5332,2.5332,2.5332,0,2.4207,2.4337,2.4383,2.4474,2.4531,2.4555,2.4648,2.4706,2.4823,2.4862,2.4846,2.5039,2.5102,2.524,2.5269,2.5312,2.5338,2.5308,2.5438,2.545,2.5461,2.5501,2.5516,2.5333,2.5333,2.5333,2.5333,0,2.436,2.445,2.4512,2.4624,2.4688,2.4779,2.4839,2.4899,2.4922,2.4968,2.5087,2.5164,2.5267,2.5303,2.5326,2.5445,2.5433,2.5428,2.5398,2.5476,2.5514,2.553,2.5335,2.5335,2.5334,2.5334,0,0,2.4452,2.4588,2.461,2.4661,2.4767,2.4838,2.4931,2.5031,2.508,2.5162,2.5241,2.537,2.5365,2.5425,2.5456,2.5516,2.5605,2.5503,2.5506,2.5518,2.5739,2.5741,2.5758,2.5613,2.5616,2.5619,2.5731,0,2.4556,2.4722,2.4766,2.4907,2.499,2.5016,2.5098,2.5171,2.5218,2.5297,2.5349,2.5439,2.5427,2.5463,2.5524,2.5581,2.565,2.5574,2.5687,2.569,2.566,2.5779,2.5781,2.5883,2.5747,2.5749,2.5751,0,2.4699,2.4782,2.493,2.5025,2.5062,2.5134,2.5229,2.5305,2.539,2.542,2.5487,2.5512,2.5612,2.5578,2.5716,2.5663,2.5713,2.5748,2.5753,2.5763,2.5723,2.579,2.5917,2.5931,2.5776,2.5774,2.5772,0,2.4749,2.4898,2.5006,2.5049,2.5163,2.5213,2.5263,2.5345,2.5403,2.5487,2.5524,2.562,2.5671,2.5745,2.5796,2.5767,2.5928,2.5899,2.5956,2.5954,2.5986,2.5983,2.612,2.6022,2.6022,2.6021,2.6021,0,2.4859,2.4949,2.503,2.5096,2.5197,2.5249,2.5348,2.5399,2.5473,2.555,2.5579,2.5651,2.5715,2.5796,2.5837,2.5944,2.5968,2.5995,2.6004,2.5991,2.5987,2.6022,2.6015,2.6026,2.6025,2.6024,2.6023,0,2.4931,2.4989,2.5108,2.5206,2.5233,2.5303,2.5388,2.5454,2.5502,2.5599,2.5625,2.5701,2.5798,2.5857,2.5981,2.6008,2.6125,2.6133,2.6096,2.61,2.6152,2.6145,2.6315,2.6339,2.6226,2.6227,2.6228,0,2.4996,2.5065,2.5171,2.5224,2.5275,2.536,2.5419,2.5473,2.5533,2.5636,2.5689,2.5788,2.5869,2.6023,2.609,2.6185,2.6194,2.6247,2.6208,2.6192,2.6192,2.6186,2.6193,2.6252,2.6253,2.6254,2.6254,0,2.5105,2.513,2.5213,2.5306,2.5375,2.5452,2.5528,2.557,2.5638,2.5704,2.5803,2.5866,2.5992,2.6089,2.6189,2.6242,2.626,2.6267,2.6284,2.627,2.6244,2.6257,2.6111,2.6262,2.6261,2.626,2.626,2.626,2.5174,2.5236,2.532,2.5412,2.5475,2.5546,2.5612,2.5669,2.5752,2.5857,2.5885,2.5989,2.6074,2.621,2.6265,2.6347,2.6339,2.6365,2.6372,2.6376,2.6376,2.6233,2.6366,2.6366,2.6366,2.6366,2.6366,0,2.5282,2.5338,2.5422,2.5527,2.5599,2.561,2.5695,2.5755,2.5845,2.5922,2.6002,2.6116,2.6211,2.6286,2.6384,2.6435,2.6446,2.6459,2.6454,2.6466,2.6379,2.6353,2.6449,2.6449,2.6449,2.6449,2.6449,2.6449,2.5347,2.5453,2.5489,2.5627,2.5683,2.5783,2.5831,2.5896,2.5958,2.6084,2.6162,2.6211,2.6287,2.6391,2.6479,2.6499,2.6533,2.6544,2.6565,2.6481,2.6472,2.6463,2.6439,2.6551,2.6551,2.6645,2.6646,2.6646]},{"header":{"parameterUnit":"m.s-1","parameterCategory":1,"la1":30.2991,"la2":30.254,"lo1":-89.0895,"lo2":-89.0444,"dy":0.0017,"dx":0.0017,"nx":28,"ny":28,"refTime":"2025-12-31T03:00:00:Z","depth":0,"parameterNumber":3,"parameterNumberName":"V-component_of_WINDS"},"data":[0,0,0,0,0,0,0,0,0,0,0,0,0,0,0,0,0,0,0,0,0,0,0,0,0,0,0,0,0,0,0,0,0,0,0,0,0,0,0,0,0,0,0,0,0,0,0,0,0,0,0,0,0,0,0,0,0,0,2.872,2.8721,0,2.8802,2.8803,2.8804,2.8803,2.8802,2.8801,2.88,2.8878,2.8881,2.8884,0,0,0,0,0,0,0,0,0,0,0,0,0,2.8556,2.8559,2.872,2.8721,2.8722,2.8802,2.8803,2.8804,2.8803,2.8802,2.88,2.8799,2.8877,2.888,2.8884,0,0,0,0,0,0,0,0,0,0,0,0,0,2.8632,2.856,2.872,2.8731,2.8733,2.8802,2.8803,2.8805,2.8803,2.8802,2.88,2.8798,2.8876,2.888,2.8885,2.8946,0,0,2.8899,2.8901,0,0,0,0,0,0,0,0,2.8627,2.8638,2.8729,2.8731,2.8733,2.8791,2.8774,2.8852,2.8804,2.8776,2.88,2.8798,2.885,2.8856,2.8875,2.895,2.8953,2.8899,2.8902,2.8904,2.8905,0,0,0,0,0,0,0,2.8622,2.8634,2.8752,2.873,2.8733,2.873,2.8739,2.8789,2.8821,2.8779,2.8779,2.8789,2.8851,2.8871,2.8877,2.8954,2.8899,2.8903,2.8906,2.8908,2.9082,2.9084,0,0,0,0,0,0,2.8615,2.863,2.875,2.8755,2.8675,2.8735,2.8745,2.8774,2.8821,2.8826,2.879,2.8789,2.8864,2.8872,2.888,2.8954,2.8904,2.8908,2.8911,2.908,2.9082,2.9084,0,0,0,0,0,0,2.8612,2.8626,2.8747,2.8692,2.8708,2.8739,2.8772,2.8776,2.8797,2.8829,2.8834,2.8805,2.8863,2.8873,2.893,2.8957,2.891,2.8915,2.9078,2.9081,2.9083,2.9104,0,0,0,0,0,0,2.8607,2.8625,2.865,2.8693,2.8711,2.8797,2.8774,2.8779,2.8805,2.8804,2.8845,2.885,2.8862,2.8923,2.8934,2.8963,2.8918,2.9076,2.9079,2.9082,2.9101,2.9107,2.9113,0,0,0,0,0,2.8601,2.8651,2.8651,2.8666,2.8743,2.8799,2.8808,2.8823,2.8807,2.8832,2.8853,2.8849,2.8952,2.8929,2.8942,2.8972,2.9074,2.9078,2.9082,2.9099,2.9106,2.9112,0,0,0,0,0,0,2.8608,2.8657,2.8658,2.8723,2.8757,2.8798,2.883,2.8831,2.8868,2.8865,2.888,2.8889,2.8945,2.8964,2.8937,2.9033,2.9011,2.9018,2.9019,2.9026,2.9032,2.9026,2.8922,0,0,0,0,0,2.8618,2.8661,2.8701,2.8755,2.8772,2.8798,2.8823,2.8831,2.8866,2.888,2.8905,2.8937,2.8977,2.9002,2.9041,2.9104,2.9112,2.9131,2.9136,2.9141,2.9147,2.9181,2.9189,2.9098,2.9098,2.9098,0,0,2.8637,2.8669,2.8695,2.8757,2.8784,2.8827,2.881,2.8856,2.8887,2.8886,2.8942,2.8961,2.8998,2.9058,2.9085,2.9075,2.9174,2.9146,2.915,2.9153,2.9186,2.9194,2.9202,2.9101,2.91,2.91,0,0,2.8695,2.8724,2.8772,2.88,2.8842,2.8859,2.8871,2.8912,2.8926,2.8982,2.8982,2.9018,2.9087,2.9113,2.9135,2.9203,2.92,2.9214,2.9244,2.9277,2.9284,2.9291,2.9314,2.9323,2.922,2.922,2.922,0,2.8713,2.878,2.8796,2.8843,2.887,2.8873,2.8921,2.8946,2.8998,2.9015,2.9003,2.9089,2.9114,2.918,2.9197,2.9215,2.9227,2.921,2.9282,2.9289,2.9295,2.9318,2.9327,2.9222,2.9221,2.9221,2.9221,0,2.88,2.8846,2.8879,2.8931,2.8962,2.9009,2.9031,2.9059,2.9065,2.9082,2.9139,2.9169,2.9214,2.923,2.9235,2.9296,2.9289,2.9279,2.9257,2.9305,2.9326,2.9335,2.9224,2.9223,2.9223,2.9222,0,0,2.8864,2.8925,2.8937,2.8961,2.9008,2.9042,2.9089,2.9134,2.9158,2.9193,2.9231,2.9289,2.9281,2.9306,2.9314,2.9343,2.9394,2.933,2.9331,2.9341,2.9463,2.947,2.948,2.9393,2.9395,2.9396,2.946,0,2.8926,2.9011,2.9027,2.91,2.9142,2.9146,2.9186,2.9218,2.9236,2.9272,2.929,2.9331,2.9318,2.9333,2.9362,2.9382,2.9419,2.9378,2.9427,2.9429,2.9418,2.9491,2.9498,2.9557,2.9468,2.947,2.9471,0,2.901,2.905,2.9128,2.9169,2.9187,2.9223,2.9266,2.9302,2.9337,2.9348,2.9376,2.9381,2.9427,2.9403,2.9467,2.9438,2.9459,2.9472,2.9475,2.948,2.9453,2.9497,2.9576,2.9585,2.9484,2.9483,2.9482,0,2.9048,2.9121,2.9177,2.9197,2.9247,2.9272,2.9293,2.9328,2.9354,2.939,2.9407,2.9448,2.947,2.9501,2.9516,2.9497,2.9578,2.9555,2.9587,2.9586,2.9603,2.9602,2.9686,2.9617,2.9617,2.9617,2.9617,0,2.9116,2.9163,2.9195,2.923,2.9282,2.93,2.9351,2.9371,2.9402,2.9439,2.9443,2.9477,2.9495,2.9532,2.9543,2.9594,2.9604,2.9612,2.9615,2.9612,2.9611,2.9626,2.9622,2.9619,2.9619,2.9618,2.9618,0,2.9168,2.9191,2.9253,2.9295,2.9307,2.9344,2.9379,2.9411,2.9429,2.9476,2.9488,2.9515,2.9558,2.9576,2.9628,2.9636,2.9694,2.9693,2.9682,2.9683,2.9713,2.971,2.981,2.9824,2.9746,2.9746,2.9747,0,2.921,2.9247,2.9294,2.932,2.9343,2.9385,2.9412,2.943,2.9458,2.9501,2.9528,2.9572,2.9608,2.9676,2.9699,2.9738,2.9739,2.9771,2.9744,2.974,2.9739,2.9737,2.974,2.9776,2.9776,2.9777,2.9778,0,2.9281,2.9291,2.9331,2.9376,2.9409,2.9445,2.9479,2.95,2.9523,2.9553,2.9599,2.9627,2.9681,2.9724,2.9765,2.9784,2.9784,2.9786,2.9795,2.9793,2.9785,2.9789,2.9695,2.9783,2.9783,2.9782,2.9782,2.9782,2.9329,2.9362,2.94,2.9445,2.9473,2.9506,2.9539,2.9561,2.96,2.9647,2.9655,2.9703,2.9736,2.9792,2.9813,2.985,2.9841,2.9855,2.9858,2.9861,2.9863,2.9779,2.9857,2.9857,2.9857,2.9857,2.9857,0,2.94,2.9425,2.9467,2.9516,2.9551,2.955,2.9588,2.9616,2.966,2.9692,2.9728,2.9779,2.9821,2.9847,2.9889,2.9913,2.9914,2.9923,2.9921,2.9925,2.9868,2.9856,2.9921,2.9921,2.9921,2.9921,2.9921,2.9921,2.9441,2.9497,2.9512,2.9581,2.9605,2.9654,2.9676,2.9705,2.9731,2.9789,2.9825,2.9843,2.9872,2.9916,2.9953,2.996,2.9974,2.9984,2.999,2.9936,2.993,2.9923,2.9912,2.9987,2.9988,3.0044,3.0045,3.0045]}]]